Location: Lombard
(41.8800°N, 88.0080°W)
Time: 07:08:58
(UTC-05:00)

A-11 Canister half - Pass Details

Date: 26 April 2025
Orbit: 1514 x 1685 km, 47.2° (Epoch: 13 May)

Event Time Altitude Azimuth Distance (km) Brightness Sun altitude
Exits shadow 03:55:09 - 173° (S) 4,648 11.2 -20.0°
Reaches altitude 10° 04:00:18 10° 149° (SSE) 3,668 10.9 -19.3°
Maximum altitude 04:04:14 13° 123° (ESE) 3,396 11.0 -18.7°
Drops below altitude 10° 04:08:10 10° 97° (E) 3,674 11.6 -18.1°
Sets 04:13:20 0° 73° (ENE) 4,673 12.8 -17.4°
